| time (UTC) | temp C | wind direction | speed KPH | gust KPH | rain 1hr cm | rain 24hr cm | rain mn cm | humidity % | barometer mb |
| 20260503220056 | 15 | 11 | 6.4 | 14.5 | 0.00 | 0.00 | 0.00 | 43 | 1017.2 |
| 20260503214552 | 16 | 181 | 3.2 | 11.3 | 0.00 | 0.00 | 0.00 | 42 | 1017.3 |
| 20260503213101 | 15 | 343 | 3.2 | 14.5 | 0.00 | 0.00 | 0.00 | 43 | 1017.3 |
| 20260503211610 | 16 | 76 | 4.8 | 14.5 | 0.00 | 0.00 | 0.00 | 43 | 1017.3 |
| 20260503210054 | 15 | 143 | 4.8 | 17.7 | 0.00 | 0.00 | 0.00 | 44 | 1017.6 |
| 20260503204551 | 15 | 126 | 8.0 | 16.1 | 0.00 | 0.00 | 0.00 | 42 | 1017.7 |
| 20260503203056 | 16 | 151 | 3.2 | 12.9 | 0.00 | 0.00 | 0.00 | 42 | 1017.9 |
| 20260503201552 | 16 | 140 | 8.0 | 17.7 | 0.00 | 0.00 | 0.00 | 44 | 1018.0 |
| 20260503200101 | 17 | 142 | 4.8 | 11.3 | 0.00 | 0.00 | 0.00 | 44 | 1018.0 |
| 20260503194602 | 16 | 143 | 8.0 | 19.3 | 0.00 | 0.00 | 0.00 | 37 | 1018.3 |
| 20260503193101 | 16 | 229 | 3.2 | 14.5 | 0.00 | 0.00 | 0.00 | 45 | 1018.5 |
| 20260503191602 | 15 | 248 | 9.7 | 17.7 | 0.00 | 0.00 | 0.00 | 42 | 1018.7 |
| 20260503190053 | 15 | 229 | 3.2 | 14.5 | 0.00 | 0.00 | 0.00 | 44 | 1018.8 |
| 20260503184601 | 15 | 43 | 8.0 | 17.7 | 0.00 | 0.00 | 0.00 | 43 | 1018.9 |
| 20260503183100 | 14 | 238 | 9.7 | 17.7 | 0.00 | 0.00 | 0.00 | 41 | 1019.0 |
| 20260503181610 | 14 | 238 | 8.0 | 16.1 | 0.00 | 0.00 | 0.00 | 41 | 1019.1 |
| 20260503180112 | 14 | 229 | 1.6 | 14.5 | 0.00 | 0.00 | 0.00 | 45 | 1019.3 |
| 20260503174559 | 14 | 205 | 4.8 | 16.1 | 0.00 | 0.00 | 0.00 | 43 | 1019.3 |
| 20260503173108 | 13 | 142 | 3.2 | 19.3 | 0.00 | 0.00 | 0.00 | 42 | 1019.4 |
| 20260503171553 | 13 | 236 | 3.2 | 16.1 | 0.00 | 0.00 | 0.00 | 44 | 1019.6 |
| 20260503150107 | 9 | 84 | 4.8 | 11.3 | 0.00 | 0.00 | 0.00 | 57 | 1020.9 |
| 20260503081553 | 1 | 59 | 0.0 | 3.2 | 0.00 | 0.00 | 0.00 | 86 | 1018.1 |
| 20260503071557 | 1 | 59 | 1.6 | 4.8 | 0.00 | 0.00 | 0.00 | 85 | 1017.7 |
| 20260503054553 | 2 | 0 | 0.0 | 3.2 | 0.00 | 0.00 | 0.00 | 80 | 1017.5 |
| 20260503053050 | 2 | 59 | 0.0 | 4.8 | 0.00 | 0.00 | 0.00 | 80 | 1017.7 |
| 20260503051556 | 3 | 59 | 0.0 | 4.8 | 0.00 | 0.00 | 0.00 | 79 | 1017.6 |
| 20260503050056 | 3 | 0 | 1.6 | 3.2 | 0.00 | 0.00 | 0.00 | 79 | 1017.6 |
| 20260503044607 | 3 | 0 | 1.6 | 4.8 | 0.00 | 0.00 | 0.00 | 79 | 1017.6 |
| 20260503043054 | 3 | 59 | 0.0 | 3.2 | 0.00 | 0.00 | 0.00 | 78 | 1017.5 |
| 20260503041550 | 3 | 59 | 1.6 | 3.2 | 0.00 | 0.00 | 0.00 | 77 | 1017.6 |
| 20260503034559 | 3 | 0 | 1.6 | 3.2 | 0.00 | 0.00 | 0.00 | 76 | 1017.2 |
| 20260503033057 | 4 | 0 | 0.0 | 3.2 | 0.00 | 0.00 | 0.00 | 74 | 1017.3 |
| 20260503031553 | 4 | 59 | 1.6 | 4.8 | 0.00 | 0.00 | 0.00 | 73 | 1017.0 |
| 20260503030124 | 5 | 0 | 0.0 | 3.2 | 0.00 | 0.00 | 0.00 | 71 | 1017.1 |
| 20260503024549 | 5 | 0 | 0.0 | 3.2 | 0.00 | 0.00 | 0.00 | 68 | 1017.0 |
| 20260503023054 | 6 | 59 | 0.0 | 4.8 | 0.00 | 0.00 | 0.00 | 67 | 1016.9 |
| 20260503021552 | 6 | 59 | 1.6 | 3.2 | 0.00 | 0.00 | 0.00 | 64 | 1016.8 |
| 20260503020052 | 7 | 59 | 0.0 | 4.8 | 0.00 | 0.00 | 0.00 | 63 | 1016.5 |
| 20260503014602 | 7 | 48 | 1.6 | 8.0 | 0.00 | 0.00 | 0.00 | 60 | 1016.3 |
| 20260503013055 | 7 | 0 | 1.6 | 6.4 | 0.00 | 0.00 | 0.00 | 60 | 1016.1 |
| 20260503011559 | 7 | 51 | 3.2 | 6.4 | 0.00 | 0.00 | 0.00 | 61 | 1016.1 |
| 20260503010104 | 7 | 19 | 1.6 | 4.8 | 0.00 | 0.00 | 0.00 | 60 | 1015.8 |
| 20260503004557 | 7 | 0 | 0.0 | 11.3 | 0.00 | 0.00 | 0.00 | 57 | 1015.7 |
| 20260503003118 | 8 | 38 | 1.6 | 6.4 | 0.00 | 0.00 | 0.00 | 58 | 1015.6 |
| 20260503001553 | 8 | 0 | 0.0 | 12.9 | 0.00 | 0.00 | 0.00 | 52 | 1015.3 |
| 20260503000058 | 9 | 96 | 3.2 | 12.9 | 0.00 | 0.00 | 0.00 | 48 | 1015.1 |
| 20260502234605 | 9 | 297 | 1.6 | 6.4 | 0.00 | 0.00 | 0.00 | 50 | 1014.9 |
| 20260502233104 | 10 | 235 | 0.0 | 11.3 | 0.00 | 0.00 | 0.00 | 50 | 1014.7 |
| 20260502231604 | 10 | 0 | 1.6 | 12.9 | 0.00 | 0.00 | 0.00 | 47 | 1014.5 |
| 20260502230050 | 10 | 220 | 4.8 | 17.7 | 0.00 | 0.00 | 0.00 | 44 | 1014.5 |
| 20260502224558 | 11 | 284 | 6.4 | 24.1 | 0.00 | 0.00 | 0.00 | 43 | 1014.5 |
| 20260502223053 | 11 | 229 | 1.6 | 17.7 | 0.00 | 0.00 | 0.00 | 41 | 1014.5 |
| 20260502221552 | 12 | 216 | 3.2 | 20.9 | 0.00 | 0.00 | 0.00 | 42 | 1014.3 |